Lapse_Rate
4.0 5.7 7.5 6.0 6.4 6.5 6.5 6.5 6.5 6.5 6.5 6.1 6.3 6.5 6.4 5.9 6.5 6.5 7.5 7.3 7.6 7.2 5.8 4.7 4.9 4.6 4.8 5.0 5.1 5.0 4.9 5.2 5.7 5.9 6.0 6.1 6.5 6.3 6.3 6.3 6.4 6.5 6.4 6.4 6.4 6.4 6.4 6.4 6.2
4.0 7.1 6.1 5.1 6.5 6.5 6.5 6.5 6.5 6.5 6.0 6.2 6.1 6.5 6.3 6.5 6.9 7.3 7.1 6.5 6.5 7.9 6.3 5.5 5.1 4.8 4.9 5.1 4.9 5.0 5.1 5.3 5.7 6.2 6.5 6.1 6.2 6.3 6.2 6.4 6.4 6.4 6.2 5.9 5.8 6.0 5.9 5.7 5.6
7.4 9.0 5.5 6.5 6.5 6.5 6.5 6.5 6.5 6.0 6.0 6.0 5.9 6.1 6.7 6.6 7.5 7.7 7.2 5.7 6.7 7.9 6.7 6.4 5.4 5.2 5.2 5.3 5.0 5.1 5.3 5.6 5.7 6.0 5.9 6.5 6.4 6.0 6.0 6.1 5.6 5.6 5.4 5.3 5.6 5.5 5.5 5.4 5.4
7.1 6.3 5.5 6.5 6.5 6.5 6.5 6.5 6.0 6.2 6.2 6.9 6.5 6.4 7.0 7.5 7.9 7.8 7.7 6.0 6.7 8.1 7.5 5.8 5.8 5.8 5.4 5.2 5.2 5.3 5.7 5.9 5.8 5.6 6.3 6.1 5.8 5.5 5.2 4.9 4.9 4.9 4.9 4.9 5.0 5.0 4.9 4.8 4.9
6.9 5.6 6.5 6.5 6.5 6.5 6.5 5.8 5.7 6.5 5.7 5.9 6.3 6.3 6.0 6.8 7.2 6.6 5.5 5.8 5.6 6.6 7.2 5.1 5.3 5.8 5.7 5.3 5.2 5.4 5.9 5.7 5.8 5.8 5.7 6.1 5.7 5.3 4.8 4.4 4.2 4.4 4.7 4.7 4.7 4.7 4.5 4.5 4.6
5.5 5.5 6.5 6.5 6.5 6.5 6.5 6.3 5.8 5.9 5.6 5.9 6.1 6.1 6.1 6.7 5.6 5.2 4.3 5.8 5.0 6.7 6.4 6.0 5.6 5.4 5.8 5.5 5.1 5.3 5.7 5.8 5.9 5.8 5.7 5.3 5.2 5.0 4.6 4.3 4.2 4.2 4.4 4.6 4.7 4.7 4.6 4.6 4.3
6.4 6.5 6.5 6.5 6.5 6.5 6.5 5.9 5.8 6.1 5.6 5.8 6.7 6.5 5.9 5.3 6.0 5.9 4.6 4.2 4.9 4.9 7.0 6.1 5.7 5.7 6.0 6.0 5.2 5.3 5.6 6.0 5.4 5.3 5.3 5.1 4.7 4.3 4.3 4.4 4.4 4.3 4.3 4.4 4.7 4.8 4.6 4.4 4.1
6.2 6.4 6.5 6.5 6.5 6.5 6.3 6.5 6.5 5.8 6.3 6.6 7.2 6.4 5.7 6.4 6.7 7.0 7.0 5.5 4.6 4.6 4.8 6.2 5.4 5.5 5.5 5.4 5.4 5.2 5.5 5.4 4.9 4.8 4.6 4.4 4.1 3.8 4.1 4.2 4.4 4.4 4.3 4.4 4.5 4.7 4.5 4.1 4.0
7.7 6.5 6.5 6.5 6.5 6.5 6.0 6.4 6.6 6.7 6.1 6.2 6.4 6.4 6.4 6.5 7.0 7.3 7.3 5.9 5.0 5.3 4.6 4.9 5.4 5.8 5.6 5.1 4.8 4.7 4.8 4.8 4.3 3.8 3.9 3.9 3.6 3.4 3.2 3.2 4.0 4.5 4.3 4.2 4.6 4.8 4.4 3.9 4.2
6.3 6.5 6.5 6.4 6.3 6.5 6.2 6.0 5.9 6.2 5.8 6.2 5.9 6.5 6.7 6.5 6.1 6.0 5.5 5.2 6.1 5.3 4.6 4.7 5.4 4.7 5.0 5.0 4.4 4.5 4.2 3.5 3.3 3.4 3.5 3.7 4.7 4.4 2.8 2.7 3.6 4.3 4.5 4.3 4.5 4.9 4.8 4.8 5.7
6.4 6.5 6.5 6.5 6.6 6.6 6.4 6.3 6.7 6.1 6.5 6.3 5.6 6.0 6.4 6.5 5.6 6.0 6.1 5.8 5.9 6.0 3.1 4.1 4.1 4.0 4.2 4.3 4.7 5.3 4.2 4.3 3.9 4.0 4.1 4.7 5.0 4.2 3.5 2.6 3.0 3.4 4.1 4.2 4.3 4.9 5.6 6.0 7.3
6.5 6.6 6.6 6.6 6.7 6.7 6.4 6.8 6.3 6.3 6.5 6.9 7.1 7.0 7.0 6.6 6.5 6.2 5.8 5.6 5.8 5.4 4.8 3.0 3.4 3.9 4.2 3.8 3.7 4.9 4.7 5.4 4.5 4.0 4.7 5.7 3.7 4.0 3.4 3.5 3.9 4.3 4.7 4.7 5.3 5.3 7.4 8.0 8.1
6.5 6.4 6.9 6.9 6.8 6.8 6.9 6.3 6.5 6.3 7.0 7.3 7.5 7.4 6.8 6.8 6.6 6.3 6.4 6.5 6.0 5.5 4.9 3.6 2.8 2.7 3.4 4.1 3.9 4.4 6.0 6.1 4.2 4.4 5.7 5.5 3.3 2.9 5.6 5.7 6.0 5.9 7.5 7.2 6.7 6.8 6.8 6.7 7.4
6.5 6.5 6.6 6.8 6.7 6.7 6.5 6.3 6.1 6.4 6.6 7.1 7.2 6.2 6.1 6.2 6.4 6.2 6.3 6.6 6.5 6.6 5.4 3.6 3.1 3.0 3.0 3.3 3.6 3.9 5.5 6.3 5.4 4.2 4.9 5.9 4.5 3.7 4.2 4.4 4.6 5.0 6.7 7.3 6.9 6.1 5.6 5.6 6.7
6.8 6.5 6.5 6.3 6.5 6.5 6.4 6.5 6.5 6.1 6.5 6.4 6.4 6.5 6.4 6.3 6.4 6.2 6.3 6.3 6.5 6.4 6.0 4.0 3.2 2.8 2.8 2.5 2.7 2.7 4.8 5.9 4.0 3.7 5.1 5.8 5.0 4.8 3.5 3.3 3.3 4.6 6.7 6.7 6.7 6.0 5.8 4.1 5.8
6.5 6.5 6.5 6.5 6.3 6.3 6.5 6.5 6.5 6.3 5.9 5.8 6.3 6.7 6.8 6.4 6.3 6.3 6.3 6.6 6.3 6.1 6.2 5.5 4.1 3.1 3.2 2.3 2.4 2.5 3.9 4.3 6.0 4.5 4.0 5.3 5.6 5.6 3.7 2.4 2.5 4.9 5.8 5.4 4.0 4.1 4.0 3.8 4.3
6.5 6.5 6.5 6.5 6.3 6.5 6.5 6.5 6.5 6.6 6.7 6.4 6.3 6.3 6.2 6.4 6.5 6.9 6.7 5.9 6.3 6.4 6.2 5.5 3.6 3.4 2.3 2.0 2.8 2.3 2.9 2.7 5.7 5.4 3.9 5.0 5.3 5.3 3.9 2.2 2.8 4.4 3.6 3.7 4.4 3.8 4.0 3.3 3.5
6.5 6.5 6.5 6.5 6.5 6.5 6.5 6.5 6.5 6.4 6.4 6.2 6.3 6.3 6.0 5.7 5.5 6.1 5.9 6.1 5.7 5.9 6.2 5.5 3.3 2.1 2.0 1.8 3.1 2.9 3.6 2.5 5.1 6.4 5.4 5.4 4.7 5.3 3.5 2.7 3.1 3.7 2.0 2.3 2.3 2.9 1.9 1.7 2.5
6.5 6.5 6.5 6.5 6.5 6.5 6.5 6.5 6.5 6.4 6.4 6.2 5.9 4.7 5.1 5.6 6.0 5.8 6.0 5.8 5.7 5.3 5.4 5.3 3.2 2.5 2.1 1.7 2.9 3.3 3.3 2.7 3.7 5.9 7.0 5.7 4.2 3.8 2.6 1.9 2.5 3.1 2.3 2.3 2.2 2.0 1.9 1.1 1.8
6.5 6.5 6.5 6.5 6.5 6.5 6.5 6.5 6.5 6.5 6.4 5.5 6.0 5.6 5.6 6.0 6.1 6.4 6.2 5.8 5.5 5.2 4.8 5.0 3.5 2.8 2.7 2.2 3.0 4.1 4.4 4.0 3.2 4.5 6.1 6.0 3.5 2.9 2.7 2.0 1.5 1.6 1.4 1.6 2.0 2.2 1.4 1.2 1.3
6.5 6.5 6.5 6.5 6.5 6.5 6.5 6.5 6.5 6.5 6.2 6.2 5.2 5.5 5.7 6.7 6.3 6.3 6.5 5.8 4.8 4.7 4.0 3.9 3.5 3.3 3.2 3.7 4.2 3.9 5.1 4.8 4.9 2.5 4.0 5.1 3.8 2.8 2.7 2.4 1.6 1.4 0.9 0.8 1.6 2.1 2.3 0.9 1.4
6.5 6.5 6.5 6.5 6.5 6.5 6.5 6.5 6.5 6.5 6.5 6.5 6.0 5.6 6.1 4.9 5.4 6.0 6.4 6.2 5.1 4.3 3.4 3.6 3.2 3.5 3.9 4.6 4.2 4.2 4.7 4.4 3.5 4.4 5.1 4.9 3.5 2.2 2.7 2.2 1.6 0.9 0.6 0.9 1.3 2.2 2.0 1.5 1.6
6.5 6.5 6.5 6.5 6.5 6.5 6.5 6.5 6.5 6.5 6.5 6.5 6.5 5.3 5.4 5.8 6.2 6.8 6.9 7.0 6.3 4.3 2.7 3.0 3.1 4.3 4.4 4.2 4.3 4.4 4.4 4.1 4.2 4.5 5.7 4.0 3.2 2.6 2.3 2.0 1.6 1.1 0.8 1.0 1.4 1.7 1.6 1.5 1.2
6.5 6.5 6.5 6.5 6.5 6.5 6.5 6.5 6.5 6.5 6.5 6.5 6.4 5.5 5.5 5.8 6.5 6.9 6.9 7.8 7.4 3.3 2.5 2.8 3.6 4.9 4.3 4.7 4.5 4.5 4.6 4.9 3.7 4.3 5.4 3.7 2.5 2.3 2.0 2.3 1.8 1.7 1.1 1.3 1.3 1.7 2.1 1.6 1.4
6.5 6.5 6.5 6.5 6.5 6.5 6.5 6.5 6.5 6.5 6.5 6.5 6.5 5.5 5.4 6.1 6.9 7.1 7.5 7.2 5.5 3.3 3.0 3.6 4.0 4.3 4.6 5.0 5.1 4.9 5.3 5.3 3.5 4.8 4.7 3.9 2.9 2.5 1.9 2.0 1.7 1.5 1.7 2.2 2.1 1.9 1.9 1.5 0.9
6.5 6.5 6.5 6.5 6.5 6.5 6.5 6.5 6.5 6.5 6.1 5.8 6.3 6.3 6.6 7.0 7.4 6.9 7.5 6.4 3.9 3.8 3.9 4.0 4.6 4.7 4.8 5.3 5.7 5.7 5.2 5.1 4.7 3.6 4.8 4.3 3.2 3.0 2.5 2.3 2.4 2.3 2.6 2.5 2.3 1.5 1.5 1.2 0.7
6.5 6.5 6.5 6.5 6.5 6.5 6.5 6.5 6.5 6.5 6.5 6.4 6.2 6.5 6.7 7.3 7.5 7.4 6.5 5.2 3.7 4.1 3.9 4.4 5.0 5.4 5.5 5.8 5.8 6.0 6.0 4.8 6.0 6.8 4.3 4.6 4.0 4.2 2.8 2.7 2.5 2.4 2.7 2.6 1.9 1.1 1.1 1.3 0.5
6.5 6.5 6.5 6.5 6.5 6.5 6.5 6.5 6.5 6.5 6.5 6.5 6.5 6.3 6.5 7.2 7.4 6.2 6.3 4.7 4.6 4.4 4.5 4.7 5.5 5.7 6.0 6.0 6.1 6.2 5.8 6.9 6.8 7.5 6.0 4.5 4.1 3.5 3.4 3.2 2.7 2.3 2.4 1.9 1.2 1.0 1.6 1.2 0.7
6.5 6.5 6.5 6.5 6.5 6.5 6.5 6.5 6.5 6.5 6.5 6.5 6.5 6.7 6.9 7.1 6.8 5.1 5.1 4.6 4.5 4.9 4.9 5.4 5.9 5.7 5.7 5.8 6.3 6.8 7.1 6.2 7.0 6.4 5.3 4.6 4.1 3.6 3.7 3.6 3.2 2.6 2.3 1.6 1.2 1.7 1.6 1.3 1.3
6.5 6.5 6.5 6.5 6.5 6.5 6.5 6.5 6.5 6.5 6.5 6.5 6.5 7.0 7.1 7.2 6.1 5.9 5.0 5.0 4.9 5.6 5.6 5.8 5.6 5.6 5.3 5.2 5.8 7.0 7.6 7.1 6.8 6.0 5.0 4.7 4.0 3.7 3.9 3.6 3.0 2.3 2.1 1.8 1.7 2.3 1.9 1.5 2.0
Wind_Speed
20 20 6 2 1 3 6 7 7 6 4 6 7 4 5 5 6 3 5 10 9 13 21 18 18 19 17 17 16 16 14 13 12 13 13 12 11 12 12 11 10 10 11 12 12 12 13 12 12
17 14 2 3 1 4 5 5 7 12 7 8 8 5 4 6 10 7 4 7 10 7 22 19 19 18 17 17 16 16 15 15 13 12 13 12 14 14 12 10 11 13 13 12 10 9 9 9 9
13 4 2 2 3 5 4 7 9 9 8 8 6 6 4 5 11 4 8 8 10 6 22 20 21 19 18 17 17 16 15 14 13 11 12 14 12 10 8 9 11 11 11 9 8 8 8 8 7
4 1 3 2 9 8 3 8 10 8 7 5 5 8 5 10 4 7 8 7 10 5 20 25 24 21 19 18 16 16 14 13 13 14 13 11 10 9 9 10 10 11 10 8 7 7 7 7 6
2 3 2 4 8 10 5 9 8 8 8 7 5 6 5 7 8 9 11 6 8 11 16 24 27 22 21 19 18 16 15 17 17 14 11 9 9 9 9 9 10 10 9 8 8 8 8 7 6
3 1 3 5 7 6 5 5 8 8 8 8 7 5 4 8 9 8 8 5 8 6 3 18 25 24 21 20 19 15 17 17 16 12 11 12 10 9 9 9 10 10 10 9 9 9 8 8 8
3 3 5 7 8 9 7 10 6 7 9 8 5 5 5 10 7 7 6 8 8 5 2 7 15 19 21 19 17 18 18 16 15 14 12 11 12 11 9 9 10 10 10 10 9 9 10 9 8
3 2 4 4 3 6 6 5 7 9 6 10 6 4 7 4 8 4 4 4 7 7 6 6 9 15 15 14 20 20 19 17 15 15 13 13 12 12 11 9 9 10 11 10 10 10 11 10 8
4 2 4 6 6 5 8 7 6 8 8 9 7 8 10 14 5 4 1 2 0 4 6 6 5 11 14 15 18 20 21 20 16 16 16 16 13 12 10 11 9 10 11 11 10 12 11 11 8
2 2 4 7 7 7 10 10 11 10 11 16 11 11 10 10 9 7 6 6 4 3 5 5 5 7 10 14 16 17 17 18 15 14 16 16 13 15 14 12 11 11 11 11 12 12 11 12 10
6 3 10 6 7 8 10 12 10 11 13 17 10 10 9 9 7 8 6 6 6 5 4 4 4 6 7 9 12 13 14 14 15 18 17 12 16 17 15 10 10 11 12 10 11 11 10 11 10
5 6 9 6 10 10 11 11 11 13 25 18 18 18 18 16 11 8 9 8 6 8 7 6 5 5 9 9 7 10 9 14 11 16 19 14 9 9 10 10 13 13 15 11 12 10 7 8 8
7 8 9 13 15 14 13 12 15 20 23 19 22 19 17 16 13 9 9 9 8 8 7 8 7 7 6 7 8 8 9 8 11 14 15 16 8 4 7 8 8 7 5 6 4 8 7 8 8
7 11 15 13 11 10 12 10 8 15 18 21 19 11 10 11 10 9 9 8 9 9 8 9 9 9 8 7 8 5 6 12 11 12 14 14 15 7 5 4 5 7 4 7 6 5 5 4 7
8 9 11 10 6 6 6 5 12 17 10 11 9 10 11 12 10 10 9 10 9 8 8 9 11 8 8 7 3 3 9 9 7 11 17 15 16 10 9 4 4 5 8 9 9 7 8 4 5
5 5 5 9 8 5 3 10 12 15 11 11 15 14 14 13 10 10 10 9 9 8 9 7 9 11 7 6 5 3 7 9 4 13 16 16 16 14 9 5 4 6 7 9 4 3 3 4 4
5 5 13 11 13 10 8 27 5 17 24 22 19 15 14 16 15 17 14 9 8 8 8 8 10 10 10 8 7 5 3 1 10 7 12 16 17 17 11 5 5 6 5 4 3 2 3 3 3
10 10 10 13 9 18 21 25 23 16 19 20 21 18 14 12 10 11 10 9 9 9 8 6 8 12 11 8 7 6 3 5 9 6 5 13 15 15 13 9 7 7 4 4 4 4 5 3 3
9 11 14 17 17 18 17 22 26 26 24 20 16 8 7 6 6 8 7 8 8 8 9 7 11 12 10 8 9 7 8 6 4 4 4 9 14 16 12 6 6 6 5 4 5 4 5 4 3
10 13 17 14 10 13 19 25 23 23 19 10 4 5 6 6 6 7 7 7 8 9 9 6 12 14 10 8 7 5 8 6 6 2 6 4 12 15 11 6 6 6 5 6 4 3 2 2 3
9 13 15 17 18 12 12 15 10 20 16 14 8 8 7 1 5 8 9 8 8 9 9 9 14 15 13 12 7 6 6 8 6 6 1 3 8 13 12 10 6 6 5 5 4 3 4 3 3
6 6 11 17 14 8 2 13 8 14 9 10 2 3 2 6 6 10 15 17 9 9 9 13 14 15 14 16 12 16 9 11 8 8 2 2 7 12 12 12 10 6 4 6 4 3 2 4 4
9 8 13 19 15 9 9 5 6 9 8 9 7 5 8 8 10 15 18 22 18 10 12 14 15 14 16 15 14 11 11 10 10 6 5 5 3 10 12 12 10 6 5 5 6 5 5 4 3
15 12 16 11 3 1 9 6 10 10 11 9 6 7 6 9 16 20 20 22 17 9 14 14 15 14 15 15 15 16 16 15 14 10 5 4 4 5 8 11 9 9 5 6 5 5 5 5 5
6 10 4 4 2 6 13 14 9 19 6 6 6 10 9 10 17 17 20 16 9 14 15 14 14 13 15 16 16 16 15 12 19 16 6 5 6 5 7 7 6 6 8 8 7 6 5 5 5
9 2 2 6 5 18 12 6 6 9 6 8 12 11 15 22 18 18 20 13 10 15 16 16 15 14 15 16 16 15 16 9 6 14 8 4 5 6 7 7 9 9 10 9 9 4 4 6 5
2 3 6 6 11 7 4 8 19 10 10 16 13 16 25 24 19 17 18 5 15 14 16 15 15 15 17 18 15 16 13 15 9 9 13 7 7 7 9 9 9 8 9 9 7 5 5 5 6
7 2 2 1 5 7 5 18 5 17 11 11 12 16 26 24 21 18 6 8 12 11 14 13 14 15 17 17 14 14 13 16 15 11 12 12 10 10 10 10 9 7 8 9 7 6 5 6 4
3 3 5 1 3 3 8 10 7 19 5 10 18 24 22 19 17 8 5 11 11 11 12 12 13 15 15 15 13 13 14 15 11 12 12 12 12 11 11 9 10 9 9 7 7 7 6 7 6
3 4 6 3 6 5 7 17 17 11 12 15 25 20 17 13 8 7 8 9 9 10 11 12 12 15 13 11 14 14 14 17 14 12 13 13 12 12 10 9 10 8 8 7 8 6 6 6 5
Wind_Direction
323 309 304 311 328 224 267 255 246 47 65 17 340 351 324 321 19 66 77 11 344 141 146 157 161 160 162 161 159 156 153 151 155 152 148 146 140 122 114 109 104 100 99 97 93 91 88 92 90
306 308 282 277 244 245 256 303 77 51 30 359 321 334 254 85 19 93 83 18 302 164 143 160 166 164 164 166 161 158 159 161 165 168 158 140 131 116 111 108 113 107 91 80 84 85 87 85 84
297 295 309 197 212 237 298 37 40 12 41 15 357 347 350 16 33 50 39 2 295 175 148 158 166 167 167 167 162 164 168 169 172 171 141 129 126 125 123 113 97 97 99 96 92 87 87 87 84
326 239 272 266 262 274 348 35 39 360 348 112 50 309 85 45 31 30 59 355 302 209 153 150 162 170 168 166 166 171 176 173 150 137 131 128 133 134 133 122 109 103 112 110 101 93 89 84 78
221 270 273 215 252 277 61 24 4 351 325 303 46 288 1 49 30 39 8 4 317 2 146 156 161 172 170 169 170 181 184 154 142 134 138 146 140 135 132 127 122 119 118 116 109 101 92 84 80
309 210 295 257 274 3 43 9 33 331 313 323 352 326 317 90 45 30 16 13 326 4 60 153 161 169 175 175 172 181 168 147 132 143 149 143 139 138 135 134 130 127 124 120 115 109 97 93 88
308 347 269 320 316 323 353 38 13 1 328 315 356 322 280 91 70 33 48 15 338 346 263 166 168 175 176 179 167 166 150 136 139 146 147 143 140 140 140 137 133 129 124 122 119 110 102 97 89
309 294 275 241 295 319 26 20 335 306 294 325 325 247 238 124 123 91 35 48 347 326 321 214 202 178 171 168 161 149 140 138 144 143 138 135 136 139 141 134 135 132 129 126 124 122 114 105 96
322 283 278 347 360 330 348 333 325 323 305 278 250 265 283 305 344 357 284 306 304 318 320 305 219 198 172 155 153 142 141 135 140 134 144 149 148 156 131 134 130 134 131 128 130 133 129 127 120
308 315 329 9 328 311 323 328 319 311 295 276 282 283 283 259 254 244 249 239 247 227 299 316 279 221 152 154 155 148 148 142 148 153 169 182 167 167 127 124 129 134 134 134 136 146 156 155 147
338 252 345 324 330 343 311 295 300 299 285 266 269 283 275 276 319 312 268 263 266 241 180 267 274 230 173 165 167 165 158 163 165 165 187 200 120 121 131 144 145 148 150 150 154 169 184 214 161
314 277 320 303 316 315 300 299 281 277 258 286 281 280 286 288 286 274 274 256 256 264 221 191 198 260 185 173 178 189 167 176 166 166 192 135 137 165 159 171 181 180 187 182 187 183 124 82 91
239 290 320 306 304 292 285 281 277 277 278 278 276 270 272 277 276 275 269 269 269 257 227 191 180 179 236 198 195 205 189 170 151 153 168 151 149 167 163 148 156 169 164 151 117 127 138 113 100
328 308 299 289 275 268 275 275 296 272 271 273 267 261 253 257 256 257 256 257 250 252 249 192 185 190 183 201 228 239 184 159 145 145 162 163 150 165 142 139 140 136 170 131 129 108 107 100 107
282 294 288 253 237 272 296 262 239 271 299 306 268 268 261 252 250 255 251 249 248 252 239 204 181 178 185 179 132 344 304 157 142 150 164 158 151 162 139 138 126 152 141 117 95 91 95 87 94
262 254 299 318 337 260 64 274 291 292 297 289 280 279 280 272 260 249 247 257 238 234 242 240 175 167 174 144 134 79 304 340 159 153 150 150 152 151 129 122 130 147 121 128 129 136 120 129 123
207 299 313 316 329 342 327 296 250 299 287 282 286 280 264 263 248 250 246 227 228 251 242 238 167 152 144 128 126 129 22 138 303 143 145 148 148 140 132 123 133 132 108 101 116 72 124 106 79
304 314 306 299 307 307 289 281 294 288 282 282 282 279 271 260 250 250 233 221 214 216 237 240 155 141 147 140 130 126 110 51 337 312 126 137 137 139 126 128 145 131 107 92 93 88 64 100 129
301 290 286 287 290 285 298 297 298 301 294 282 269 256 294 316 341 325 250 222 224 208 207 215 151 139 147 149 154 156 151 125 130 334 20 115 115 115 115 123 126 132 123 134 129 118 99 39 24
284 290 288 288 298 307 305 301 296 288 285 287 313 11 310 273 289 289 274 243 224 214 203 194 156 156 160 162 163 157 153 138 113 32 29 45 111 114 120 128 115 111 106 98 97 101 105 82 33
287 287 296 293 314 302 316 300 312 306 293 286 228 184 233 247 349 334 323 257 224 213 203 163 156 165 163 165 139 125 127 121 127 97 59 264 120 116 123 122 115 112 107 113 111 130 139 132 22
295 271 307 305 316 310 35 298 315 280 284 290 318 222 288 30 358 339 321 314 241 209 182 158 157 168 167 157 161 163 159 138 122 111 164 246 119 114 125 119 110 111 108 108 107 96 100 121 134
250 302 298 285 283 303 290 237 269 288 290 292 293 307 22 348 328 309 292 276 267 195 160 160 158 167 164 165 164 159 144 124 116 110 151 166 117 122 118 112 109 107 103 103 104 90 73 90 104
272 287 294 281 135 336 261 191 280 303 301 315 24 12 349 323 319 310 294 282 259 170 147 155 159 164 160 164 160 150 144 144 129 130 175 191 135 134 112 111 108 104 100 103 105 98 95 96 86
4 336 316 343 343 239 333 320 262 286 40 26 343 328 320 335 313 304 295 282 210 144 148 159 158 155 163 159 156 148 142 147 138 158 156 159 139 135 118 115 110 104 104 103 99 86 70 69 82
309 311 185 302 312 297 286 246 246 315 65 14 340 352 348 324 311 302 295 281 138 141 154 157 156 153 152 154 151 146 140 143 159 145 143 150 136 137 125 114 108 109 109 104 96 91 83 78 79
30 233 206 269 263 276 247 277 321 353 20 353 357 347 332 318 315 303 287 184 130 148 160 157 157 164 154 156 145 147 149 140 147 163 137 139 134 138 113 111 113 112 111 106 101 91 81 87 80
206 326 359 285 304 310 309 295 277 321 332 338 324 326 341 316 312 304 280 118 128 138 154 142 156 160 155 149 144 143 137 151 141 158 141 135 135 121 117 119 116 109 101 101 97 93 93 89 84
197 235 201 145 237 255 307 305 276 313 330 341 339 336 324 307 303 337 83 95 124 129 136 146 152 147 141 132 135 136 149 137 132 130 129 132 128 124 117 122 117 112 107 104 93 96 100 91 90
185 268 273 141 258 246 281 273 286 311 26 359 333 320 309 308 345 56 71 100 106 123 132 148 142 130 115 107 109 136 147 120 129 131 126 127 122 109 121 119 110 102 106 105 93 99 109 101 101